Regional Weather Roundup
Issued by NWS

Home | Current Version | Previous Version | Text Only | Print | Product List | Glossary On
Versions: 1 2 3 4 5 6 7 8 9 10 11 12 13 14 15 16 17 18 19 20 21 22 23 24 25 26 27 28 29 30 31 32 33 34 35 36 37 38 39 40 41 42 43 44 45 46 47 48 49 50
000
ASUS43 KDMX 201706
RWRIA

WEATHER ROUNDUP FOR IOWA
NATIONAL WEATHER SERVICE DES MOINES IA
1200 PM CDT FRI OCT 20 2017

NOTE: "FAIR" INDICATES FEW OR NO CLOUDS BELOW 12,000 FEET WITH NO
SIGNIFICANT WEATHER AND/OR OBSTRUCTIONS TO VISIBILITY.

* - THESE STATIONS ARE NOT NWS STATIONS...THUS NOT UNDER NWS
QUALITY CONTROL.  THEY ALSO DO NOT REPORT WEATHER SUCH
AS PRECIPITATION OR FOG.

IAZ001>003-012>014-020>022-031>034-043>046-201800-
   NORTHWEST IOWA

CITY           SKY/WX    TMP DP  RH WIND       PRES   REMARKS
CHEROKEE *     MOSUNNY   69  56  63 S22       29.84F
DENISON *      CLOUDY    70  55  60 S16G28    29.90F
LE MARS *      MOSUNNY   70  54  56 S23G37    29.79F
ORANGE CITY *  PTSUNNY   70  55  60 S23G29    29.80F
SHELDON *      MOSUNNY   70  54  56 S16G25    29.80F
SIOUX CITY     SUNNY     69  55  60 S21       29.82F
SPENCER        SUNNY     73  53  49 S22G31    29.84F
STORM LAKE *   MOSUNNY   70  54  56 S26       29.86F
$$

IAZ055>058-069>071-079>083-090>094-201800-
   SOUTHWEST IOWA

CITY           SKY/WX    TMP DP  RH WIND       PRES   REMARKS
ATLANTIC *     MOSUNNY   70  55  60 S14G26    29.92F
AUDUBON *      CLOUDY    68  57  68 S15G22    29.94F
CLARINDA *     CLOUDY    72  55  56 S16G26    29.97F
COUNCIL BLFS * CLOUDY    68  59  73 S16G25    29.89F
CRESTON *      CLOUDY    66  54  63 S20       30.00F
HARLAN  *      CLOUDY    70  55  60 S17G25    29.93F
LAMONI         CLOUDY    68  56  65 S12       30.02F
RED OAK *      CLOUDY    72  55  56 S18G28    29.94F
SHENANDOAH *   MOSUNNY   70  55  60 S16G25    29.94F
$$

IAZ047>049-059>061-072>074-084-201800-
   CENTRAL IOWA

CITY           SKY/WX    TMP DP  RH WIND       PRES   REMARKS
AMES           SUNNY     70  56  61 S16       29.98F
ANKENY *       MOSUNNY   70  54  56 S13G20    30.00F
BOONE *        SUNNY     70  54  56 S16G22    29.96F
CHARITON *     MOSUNNY   70  54  56 S16G22    30.02F
DES MOINES     CLOUDY    70  52  52 S14G21    29.99F
GRINNELL*      SUNNY     70  51  51 S13       30.04F
KNOXVILLE *    PTSUNNY   70  52  52 S14G20    30.02F
MARSHALLTOWN   SUNNY     72  51  47 S17       30.00F
NEWTON *       SUNNY     70  52  52 S17       30.02S
PELLA *        MOSUNNY   70  52  52 SW14      30.05S
PERRY *          N/A     71  53  52 S14G20    29.96F
$$

IAZ004>006-015-016-023>025-035-036-201800-
   NORTH CENTRAL IOWA

CITY           SKY/WX    TMP DP  RH WIND       PRES   REMARKS
ALGONA *       MOSUNNY   70  54  56 S20G26    29.90F
CLARION *      SUNNY     72  54  53 S20G26    29.94F
ESTHERVILLE    LGT RAIN  69  54  58 S21G30    29.85F
FORT DODGE *   SUNNY     71  55  56 S17       29.92F
MASON CITY     SUNNY     71  51  49 S17G26    29.95F
FOREST CITY *    N/A     70  52  52 S20       29.93F
WEBSTER CITY * SUNNY     73  52  46 S18       29.93F
IOWA FALLS *     N/A     71  53  53 S18       29.99F
$$

IAZ007>011-017>019-026>030-037>042-050>054-066-201800-
   NORTHEAST IOWA

CITY           SKY/WX    TMP DP  RH WIND       PRES   REMARKS
CEDAR RAPIDS   SUNNY     70  53  54 S13G21    30.05F
CHARLES CITY * SUNNY     72  52  49 S12G20    29.99F
CLINTON *      SUNNY     73  55  53 S10       30.10F
DECORAH *      SUNNY     70  52  52 S12G18    30.00F
DUBUQUE        SUNNY     68  54  60 SW13      30.08F
MONTICELLO *   SUNNY     72  52  49 S9G17     30.06F
OELWEIN *      SUNNY     70  54  56 S15       30.03F
WATERLOO       SUNNY     71  52  50 S14       30.00F
$$

IAZ064-065-067-068-078-201800-
   EAST CENTRAL IOWA

CITY           SKY/WX    TMP DP  RH WIND       PRES   REMARKS
DAVENPORT      SUNNY     72  53  51 S9        30.12F
IOWA CITY      SUNNY     72  54  53 S12       30.08F
MUSCATINE *    SUNNY     72  54  53 S9G16     30.09F
QUAD CITIES    SUNNY     73  53  49 S10       30.10F
$$

IAZ062-063-075>077-085>089-095>099-201800-
   SOUTHEAST IOWA

CITY           SKY/WX    TMP DP  RH WIND       PRES   REMARKS
BURLINGTON     SUNNY     70  55  59 S9        30.11F
FAIRFIELD *    MOSUNNY   68  52  56 S12       30.07F
FORT MADISON * SUNNY     72  54  53 S7        30.11F
KEOKUK *       SUNNY     70  54  56 S9        30.11F
OSKALOOSA *      N/A     70  53  53 SW13      30.06S
OTTUMWA        MOSUNNY   70  53  54 S12       30.06F
WASHINGTON *   SUNNY     70  54  56 S13       30.09F
$$

ABBREVIATIONS USED IN REMARKS
   TC - TEMPERATURES IN CELSIUS
  WCI - WIND CHILL INDEX
   HX - HEAT INDEX
  VSB - VISIBILITY
$$





USA.gov is the U.S. government's official web portal to all federal, state and local government web resources and services.